www.pogodaiklimat.ru

Погода и климат >> Архив погоды >> Украина >> Киев


АРХИВ ПОГОДЫ в Киеве

Время (UTC), дата Ветер
(напр.,м/с)
 
Видим.   Явления Облачность Т
(С)
Тd
(С)
f
(%)
Тe
(С)
Тes
(С)
Комфортность P
(гПа)
Po
(гПа)
Тmin
(С)
Tmax
(С)
R
(мм)
R24
(мм)
S
(см)
03 14.10 СЗ 3 4000 м слабая морось {дождь} 10/10 210 м
[St]
+9.2 +8.4 95 +7 +7 по сезону 1014.0 993.8
06 14.10 СЗ 3 10 км слабая морось {дождь} 10/10 360 м
[St]
+9.4 +8.4 93 +7 +7 по сезону 1015.0 994.8 +8.8 1
09 14.10 СЗ 5 10 км в посл. час дождь {морось} 10/10 420 м
[Sc]
+9.0 +6.4 84 +6 +6 по сезону 1016.8 996.5
12 14.10 СЗ 3 20 км {дождь, морось} 10/10 300 м
[Sc]
+9.2 +3.4 67 +7 +7 прохладно 1018.0 997.7
15 14.10 СЗ 4 20 км 10/6 1000 м
[Sc Ac As]
+9.4 +3.4 66 +7 +7 по сезону 1018.4 998.1
18 14.10 СЗ 2 20 км в посл. час дождь 10/5 300 м
[Frnb As op]
+8.6 +5.0 78 +7 +7 по сезону 1018.9 998.5 +10.1 0.3
21 14.10 ЮЗ 1 4000 м дымка {дождь} 10/10 570 м
[Sc]
+8.1 +6.1 87 +7 +7 по сезону 1017.8 997.4
00 15.10 З 2 4000 м слабый дождь 10/10 210 м
[Frnb Ns]
+8.3 +7.7 96 +6 +6 по сезону 1016.1 995.8
03 15.10 СЗ 3 4000 м дымка {дождь} 10/10 150 м
[St]
+11.5 +10.9 96 +10 +10 тепло 1015.2 995.1
06 15.10 СЗ 4 10 км {дождь, морось} 9/9 420 м
[Sc]
+14.2 +12.7 91 +13 +13 тепло 1014.5 994.6 +7.7 3
09 15.10 СЗ 5 20 км 10/8 600 м
[Sc Ac und]
+16.2 +12.2 77 +15 +15 тепло 1014.8 995.1
12 15.10 З 5 10 км слабый дождь 10/10 400 м
[Frnb Ns]
+15.4 +13.6 89 +14 +14 тепло 1012.8 993.1
15 15.10 СЗ 4 10 км в посл. час дождь 8/6 600 м
[Sc Ac trans]
+11.3 +9.1 86 +9 +9 по сезону 1015.4 995.3
18 15.10 СЗ 4 10 км {дождь} 3/0
[Ac trans]
+10.4 +8.6 89 +8 +8 по сезону 1017.9 997.7 +16.4 4
21 15.10 СЗ 4 10 км ясно +9.9 +7.6 86 +7 +7 по сезону 1020.2 999.9
00 16.10 СЗ 3 10 км ясно +8.7 +6.8 88 +6 +6 по сезону 1021.6 1001.2
03 16.10 СЗ 3 10 км 3/0
[Ac trans]
+8.1 +6.6 90 +5 +5 по сезону 1023.0 1002.5
06 16.10 СЗ 3 10 км 8/8 400 м
[Sc As op]
+8.4 +6.9 90 +6 +6 по сезону 1024.3 1003.8 +7.7
09 16.10 З 4 20 км 3/0
[Ac trans]
+12.0 +8.4 79 +10 +13 по сезону 1023.9 1003.7
12 16.10 З 4 20 км ясно +13.8 +7.0 64 +12 +15 по сезону 1022.9 1002.8
15 16.10 ЮЗ 1 20 км ясно +14.0 +7.5 65 +14 +14 тепло 1021.4 1001.4
18 16.10 СЗ 2 20 км ясно +12.3 +7.1 71 +11 +11 тепло 1021.0 1000.9 +15.5
21 16.10 СЗ 3 10 км ясно +11.4 +9.4 88 +10 +10 тепло 1020.6 1000.4
00 17.10 СЗ 2 4000 м дымка ясно +10.8 +9.6 92 +9 +9 тепло 1020.3 1000.1
03 17.10 СЗ 2 4000 м дымка ясно +10.6 +9.4 92 +9 +9 тепло 1019.8 999.6
06 17.10 СЗ 2 4000 м дымка 10/10 300 м
[St]
+12.1 +11.3 95 +11 +11 тепло 1021.0 1000.9 +10.5
09 17.10 СЗ 3 10 км {морось} 9/9 300 м
[St]
+14.7 +12.1 84 +14 +14 тепло 1022.0 1002.0
12 17.10 СЗ 3 20 км {морось} 10/10 540 м
[St]
+15.1 +11.4 79 +14 +14 тепло 1021.9 1002.0
15 17.10 З 1 20 км 3/0
[Ci fib]
+14.2 +10.8 80 +15 +15 тепло 1022.4 1002.4
18 17.10 З 1 10 км 3/0
[Ac trans]
+12.2 +10.5 89 +12 +12 тепло 1023.0 1002.8 +15.9 0.0
21 17.10 штиль 0 4000 м дымка ясно +10.8 +9.6 92 +10 +10 тепло 1022.8 1002.5
00 18.10 ЮЗ 2 4000 м дымка ясно +9.8 +9.2 96 +8 +8 тепло 1022.2 1001.9
03 18.10 ЮЗ 2 2000 м дымка ясно +10.0 +9.6 97 +8 +8 тепло 1021.5 1001.2
06 18.10 З 2 500 м туман 8/6 90 м
[St Cc]
+10.3 +10.1 99 +9 +9 тепло 1020.9 1000.6 +9.6
09 18.10 ЮЗ 4 20 км {туман} ясно +17.3 +11.8 70 +17 +20 тепло 1019.5 999.8
12 18.10 Ю 3 20 км {туман} ясно +20.9 +13.0 61 +24 +27 комфорт 1017.4 997.9
15 18.10 Ю 2 20 км ясно +17.7 +13.3 75 +18 +18 тепло 1016.3 996.7
18 18.10 ЮЗ 3 20 км ясно +15.4 +12.3 82 +15 +15 тепло 1016.1 996.3 +21.1
21 18.10 З 1 10 км ясно +14.9 +11.8 82 +15 +15 тепло 1015.8 996.0
00 19.10 СЗ 2 10 км ясно +13.5 +10.6 83 +13 +13 тепло 1015.8 995.9
03 19.10 З 3 10 км ясно +12.0 +10.1 88 +10 +10 тепло 1016.2 996.1
06 19.10 штиль 0 10 км 8/0
[Cc]
+11.9 +9.9 88 +11 +12 тепло 1016.7 996.6 +11.0
09 19.10 СВ 1 20 км 8/0
[Ac trans Ci sp]
+15.9 +11.9 77 +17 +20 тепло 1016.6 996.8
12 19.10 В 1 20 км 8/0
[Ac trans Ci fib]
+19.2 +12.8 66 +21 +24 комфорт 1015.5 996.0
15 19.10 СВ 2 20 км 8/0
[Ac trans Ci fib]
+16.1 +12.9 81 +16 +16 тепло 1015.6 995.9
18 19.10 СВ 2 10 км ясно +13.7 +11.1 84 +13 +13 тепло 1016.6 996.7 +19.6
21 19.10 СВ 2 20 км 10/10 660 м
[Sc]
+12.8 +8.8 77 +12 +12 тепло 1017.3 997.3
00 20.10 СВ 2 10 км 8/8 600 м
[Sc]
+11.7 +8.5 81 +11 +11 тепло 1017.6 997.5
03 20.10 СВ 3 10 км 10/10 330 м
[St]
+11.2 +8.4 83 +9 +9 тепло 1018.4 998.2
06 20.10 СВ 2 10 км 9/9 1300 м
[Sc]
+9.9 +7.6 86 +8 +8 тепло 1019.7 999.4 +9.8
09 20.10 СВ 2 10 км 9/6 1500 м
[Sc Ac und]
+11.0 +7.2 77 +10 +11 тепло 1020.6 1000.4
12 20.10 СВ 2 20 км 10/6 1000 м
[Sc Ac As]
+11.6 +7.2 74 +11 +11 по сезону 1020.5 1000.3
15 20.10 СВ 2 20 км 10/10 1410 м
[Sc]
+11.1 +7.4 78 +10 +10 тепло 1020.5 1000.3
18 20.10 штиль 0 10 км 9/9 1350 м
[Sc]
+10.5 +6.9 78 +10 +10 тепло 1021.1 1000.8 +12.0
21 20.10 СВ 1 10 км 9/9 1320 м
[Sc]
+9.7 +6.3 79 +9 +9 тепло 1020.9 1000.6
00 21.10 штиль 0 10 км 9/9 1260 м
[Sc]
+8.9 +5.6 80 +8 +8 тепло 1020.3 999.9

 

Местоположение метеостанции Киев (город Киев, Украина): широта 50.40 долгота 30.57 высота над уровнем моря 167 м.

В архиве по умолчанию представлена погода в Киеве за последнюю неделю. Архивные данные за месяц целиком и за предыдущие месяцы, начиная с января 2011 года, Вы можете получить, выбрав интересующий диапазон дат из раскрывающегося списка и нажав кнопку "Ввод!".

Внимание! Время в таблицах - всемирное. Для получения местного времени необходимо прибавить поправку, которая в Киеве равна 2 ч.

Смотрите также архив погоды в соседних городах и на ближайших метеорологических станциях:

Погода в Вышгороде (Киевская область, Украина) (21 км)
Погода в Борисполе (Киевская область, Украина) (29 км)
Погода в Барышевке (Киевская область, Украина) (54 км)
Погода в Фастове (Киевская область, Украина) (58 км)
Погода в Остере (Черниговская область, Украина) (65 км)
Погода в Тетереве (Киевская область, Украина) (78 км)
Погода в Белой Церкви (Киевская область, Украина) (79 км)
Погода в Мироновке (Киевская область, Украина) (87 км)
Погода в Яготине (Киевская область, Украина) (90 км)
Погода в Чернобыле (Киевская область, Украина) (101 км)

Пояснения к столбцам:

Ветер - указаны скорость ветра в м/с - средняя за 10 мин, порывы в срок и между сроками (в фигурных скобках) и направление, откуда дует ветер: С - северный, СВ - северо-восточный, В - восточный, ЮВ - юго-восточный, Ю - южный, ЮЗ - юго-западный, З - западный, СЗ - северо-западный.
Видимость - горизонтальная дальность видимости в метрах или километрах. При видимости от 1 до 10 км при отсутствии осадков обычно наблюдается дымка, при ухудшении видимости до 1 км и менее - туман. В сухую погоду видимость может ухудшаться дымом, пылью или мглою.
Явления - указаны атмосферные явления, наблюдавшиеся в срок или в последний час перед сроком; фигурными скобками обозначены явления, наблюдавшиеся между сроками (за 1-3 часа до срока); квадратными скобками обозначены град или гололедные отложения с указанием их диаметра в мм.
Облачность - указаны через наклонную черту общая и нижняя облачность в баллах и высота нижней границы облаков в метрах; квадратными скобками обозначены формы облаков: Ci - перистые, Cs - перисто-слоистые, Cc - перисто-кучевые, Ac - высококучевые, As - высокослоистые, Sc - слоисто-кучевые, Ns - слоисто-дождевые, Cu - кучевые, Cb - кучево-дождевые. Подробнее классификацию облаков см. в Атласе облаков (PDF).
T - Температура воздуха - температура, измеренная на высоте 2 м над землей.
Td - Температура точки росы - температура, при понижении до которой содержащийся в воздухе водяной пар достигнет насыщения.
f - Относительная влажность воздуха - влажноcть воздуха, измеренная на высоте 2 м над землей.
Te - Эффективная температура - температура, которую ощущает одетый по сезону человек в тени. Характеристика душности погоды. При расчете учитывается влияние влажности воздуха и скорости ветра на теплоощущения человека.
Tes - Эффективная температура на солнце - температура, которую ощущает человек, с поправкой на солнечный нагрев. Характеристика знойности погоды. Зависит от высоты солнца над горизонтом, облачности и скорости ветра. Ночью, в пасмурную погоду, а также при ветре 12 м/с и более поправка равна нулю.
P - Атмосферное давление - приведенное к уровню моря атмосферное давление.
Po - Атмосферное давление - измеренное на уровне метеостанции атмосферное давление.
Tmin - Минимальная температура - минимум температуры воздуха на высоте 2 м над землей.
Tmax - Максимальная температура - максимум температуры воздуха на высоте 2 м над землей.
R - Количество осадков - Количество выпавших осадков за период времени, мм. При наведении курсора мыши на число - период времени, за который выпало указанное количество осадков.
R24 - Количество осадков - Количество выпавших осадков за 24 часа, мм.
S - Снежный покров - Высота снежного покрова, см. При наведении курсора мыши на число - состояние снежного покрова и степень покрытия местности в баллах.